User: anonymous   Login
Location: Castle
(40.7167°S, 175.9500°E)
Time: 19:09:55
(UTC+00:00)
Language:

ATLAS 5 CENTAUR R/B - Orbit

View from above orbital plane
View from above orbital plane
View from above satellite
View from above satellite

Ground track
Ground track

The orbit data is extracted from the following two-line orbital elements,

1 31702U 07027B   24282.47372380  .00038736  00000-0  29194-2 0  9995
2 31702  63.3259 314.2912 0519911  34.2367 329.1094 14.33061945 21744
Epoch (UTC): 08 October 2024 11:22:09
Eccentricity: 0.0519911
inclination: 63.3259°
perigee height: 409 km
apogee height: 1154 km
right ascension of ascending node: 314.2912°
argument of perigee: 34.2367°
revolutions per day: 14.33061945
mean anomaly at epoch: 329.1094°
orbit number at epoch: 2174

The dashed part of the orbit path shows where the satellite is in the earth's shadow,  

DLR